Find Starlink 32865

NORAD ID: 62952 Int'l Des: 2025-029 Owner: SPXS Country: US Constellation: starlink operational
LEOCIRCULAR

Live Position

Loading 3D Globe...

About Starlink 32865

Description loading...

Upcoming Passes

Passes for default location (London). Set your location on the main map for personalized predictions.

Altitude History

Loading altitude history...

Two-Line Element Set

1 62952U 25029E 26126.16668980 -.00015688 00000-0 -49474-3 0 9994
2 62952 53.1601 325.4033 0001094 87.2769 94.3878 15.31705493 5793
Epoch: May 6, 2026 • Age: 5 hours

Current Status

Altitude 484.9 km
Velocity 7.62 km/s
Sub-Earth Point -41.00°S, 78.77°W
Launch Date Feb 11, 2025
Age 1.2 years
Type internet

Technical Details

Classification Payload
Mass 730.00 kg
Dry Mass 700.00 kg
Total Mass 730.00 kg
Length 0.30 m
Diameter 4.10 m
Span 29.00 m
Shape Box + pan
Manufacturer SPXS
Bus Type Starlink V2M
Phase Status In Orbit
Owner/State SPXS/US

Most Searched